Back to catalog

STARLINK-5237

AliveCommunicationsVLEO
NORAD 54196·PAYLOAD·🇺🇸 United States

Launched Oct 28, 2022 from Vandenberg Space Force Base

Loading…

Next Passes (next 24 hours)

TLE

FreshSource: CelesTrak SupGP

Epoch: Sep 14, 2026, 22:02 UTC

1 54196C 22141AR  26257.91854167 -.00003170  00000+0 -90663-4 0  2575
2 54196  53.1580 214.0306 0001402  93.7254  37.1432 15.35414271    16

Track STARLINK-5237 in real time with AllMySat

Download on the App Store